CDT,Max TemperatureF,Mean TemperatureF,Min TemperatureF,Max Dew PointF,MeanDew PointF,Min DewpointF,Max Humidity, Mean Humidity, Min Humidity, Max Sea Level PressureIn, Mean Sea Level PressureIn, Min Sea Level PressureIn, Max VisibilityMiles, Mean VisibilityMiles, Min VisibilityMiles, Max Wind SpeedMPH, Mean Wind SpeedMPH, Max Gust SpeedMPH,PrecipitationIn, CloudCover, Events, WindDirDegrees
2013-3-1,59,44,28,30,27,25,86,58,29,30.28,30.21,30.15,10,10,10,18,5,24,0.00,0,,339
2013-3-2,51,40,28,28,23,19,87,59,30,30.37,30.29,30.23,10,10,10,18,8,28,0.00,1,,341
2013-3-3,66,45,24,39,28,21,86,54,28,30.27,30.15,29.99,10,10,10,17,4,24,0.00,0,,190
2013-3-4,77,62,48,57,51,39,88,67,41,29.99,29.83,29.73,10,10,10,29,12,36,0.00,1,,186
2013-3-5,64,50,37,57,34,21,82,48,25,30.33,30.15,29.78,10,10,9,25,13,31,0.00,2,,335
2013-3-6,64,48,33,30,24,19,75,44,19,30.44,30.33,30.25,10,10,10,12,6,16,0.00,0,,360
2013-3-7,66,48,30,34,30,27,87,50,26,30.32,30.25,30.19,10,10,9,10,4,17,0.00,0,,131
2013-3-8,69,55,41,54,44,34,81,62,40,30.26,30.17,30.09,10,10,10,14,5,20,0.00,1,,136
2013-3-9,73,64,55,59,55,48,88,74,57,30.10,29.94,29.81,10,10,7,20,9,26,0.00,7,,157
2013-3-10,64,54,44,61,47,28,94,73,42,30.08,29.89,29.72,10,9,3,34,10,43,1.29,5,Thunderstorm,324
2013-3-11,57,46,33,32,28,25,81,52,29,30.11,30.06,30.00,10,10,10,18,8,24,0.00,0,,323
2013-3-12,68,48,28,37,29,25,93,57,23,30.29,30.17,30.08,10,10,10,8,1,16,0.00,0,,99
2013-3-13,69,53,37,36,33,28,81,50,21,30.46,30.38,30.29,10,10,5,13,4,,0.00,0,,45
2013-3-14,73,54,35,45,39,30,87,59,33,30.42,30.34,30.25,10,10,9,13,3,18,0.00,0,,193
2013-3-15,78,61,44,54,46,39,87,59,32,30.28,30.15,30.02,10,10,10,17,7,26,0.00,0,,199
2013-3-16,80,68,55,55,54,52,94,66,37,30.01,29.92,29.80,10,10,10,22,11,26,0.00,1,,191
2013-3-17,80,70,60,63,59,55,88,72,47,29.87,29.80,29.69,10,10,3,14,10,20,0.00,6,,181
2013-3-18,84,71,60,63,59,45,88,68,48,29.99,29.81,29.74,10,10,6,17,8,23,0.00,4,,253
2013-3-19,73,62,51,46,43,36,77,51,35,30.10,30.01,29.96,10,10,8,16,7,17,0.00,1,Thunderstorm,82
2013-3-20,69,56,44,45,37,27,87,55,21,30.26,30.15,30.07,10,10,4,15,5,23,0.00,1,Thunderstorm,41
2013-3-21,71,56,44,52,41,32,81,58,37,30.06,29.88,29.71,10,10,10,20,5,24,0.23,4,,147
2013-3-22,82,70,57,64,58,50,88,72,51,29.79,29.71,29.66,10,10,4,15,8,20,0.00,7,,163
2013-3-23,62,56,51,55,50,48,88,81,72,29.82,29.74,29.64,10,8,2,10,5,,0.00,8,,36
2013-3-24,55,45,35,52,34,27,88,58,35,30.15,29.96,29.66,10,10,10,29,13,38,0.00,3,,331
2013-3-25,57,44,30,27,21,18,80,46,23,30.39,30.27,30.15,10,10,10,22,7,31,0.00,0,,343
2013-3-26,57,42,26,27,21,18,80,49,21,30.50,30.40,30.34,10,10,10,17,4,24,0.00,0,,345
2013-3-27,68,47,26,37,28,21,86,52,24,30.41,30.31,30.19,10,10,10,15,3,20,0.00,0,,161
2013-3-28,69,60,50,52,46,37,77,63,53,30.31,30.25,30.19,10,10,10,12,6,,0.00,6,,146
2013-3-29,75,65,55,57,54,48,88,71,50,30.25,30.20,30.14,10,10,3,14,6,18,0.00,7,,171
2013-3-30,75,66,57,61,57,54,94,74,53,30.16,30.05,29.96,10,10,3,16,7,20,0.63,5,Thunderstorm,194
2013-3-31,69,63,57,63,59,54,88,83,72,30.04,29.95,29.90,10,10,5,20,6,26,0.69,6,Thunderstorm,173